�������l�o���
Date,Time,MP-1(��Sv/h),MP-2(��Sv/h),MP-3(��Sv/h),MP-4(��Sv/h),MP-5(��Sv/h),MP-6(��Sv/h),MP-7(��Sv/h),MP-8(��Sv/h),����,����(m/s),���J
2023/07/16,00:00,0.512,0.780,0.479,0.934,0.685,0.320,0.558,0.527,�쐼,6.7,��
2023/07/16,00:10,0.516,0.778,0.479,0.936,0.685,0.320,0.558,0.527,�쐼,7.7,��
2023/07/16,00:20,0.514,0.779,0.481,0.933,0.684,0.319,0.558,0.526,�쐼,7.9,��
2023/07/16,00:30,0.515,0.778,0.480,0.934,0.683,0.319,0.557,0.528,�쐼,8.4,��
2023/07/16,00:40,0.516,0.779,0.481,0.937,0.685,0.320,0.556,0.526,�쐼,7.7,��
2023/07/16,00:50,0.515,0.781,0.480,0.934,0.686,0.320,0.558,0.527,�쐼,8.1,��
2023/07/16,01:00,0.514,0.780,0.480,0.935,0.685,0.319,0.557,0.527,�쐼,6.9,��
2023/07/16,01:10,0.515,0.780,0.479,0.934,0.684,0.320,0.558,0.526,�쐼,6.5,��
2023/07/16,01:20,0.514,0.778,0.480,0.936,0.685,0.320,0.557,0.526,���쐼,4.9,��
2023/07/16,01:30,0.515,0.781,0.480,0.936,0.684,0.319,0.558,0.526,�쐼,2.9,��
2023/07/16,01:40,0.516,0.779,0.482,0.934,0.686,0.320,0.559,0.526,�쐼,2.3,��
2023/07/16,01:50,0.515,0.779,0.479,0.936,0.686,0.320,0.559,0.527,�쐼,2.5,��
2023/07/16,02:00,0.515,0.780,0.480,0.936,0.686,0.319,0.559,0.527,���쐼,2.8,��
2023/07/16,02:10,0.514,0.777,0.480,0.936,0.686,0.320,0.558,0.527,���쐼,3.1,��
2023/07/16,02:20,0.515,0.780,0.480,0.935,0.685,0.321,0.558,0.527,���쐼,3.8,��
2023/07/16,02:30,0.515,0.779,0.480,0.937,0.686,0.320,0.559,0.526,���쐼,5.4,��
2023/07/16,02:40,0.515,0.782,0.480,0.938,0.685,0.319,0.558,0.527,���쐼,6.0,��
2023/07/16,02:50,0.515,0.778,0.479,0.935,0.688,0.319,0.559,0.527,�쐼,4.4,��
2023/07/16,03:00,0.516,0.781,0.479,0.937,0.685,0.320,0.558,0.527,�쐼,5.1,��
2023/07/16,03:10,0.514,0.780,0.480,0.937,0.684,0.320,0.560,0.528,�쐼,6.0,��
2023/07/16,03:20,0.515,0.780,0.479,0.937,0.685,0.320,0.559,0.526,�쐼,5.9,��
2023/07/16,03:30,0.514,0.782,0.479,0.937,0.685,0.320,0.559,0.527,���쐼,6.2,��
2023/07/16,03:40,0.516,0.779,0.479,0.936,0.685,0.319,0.557,0.527,�쐼,6.2,��
2023/07/16,03:50,0.514,0.779,0.479,0.937,0.685,0.320,0.559,0.528,�쐼,7.6,��
2023/07/16,04:00,0.514,0.779,0.480,0.937,0.686,0.320,0.559,0.529,�쐼,7.4,��
2023/07/16,04:10,0.515,0.779,0.480,0.935,0.685,0.319,0.558,0.528,�쐼,7.1,��
2023/07/16,04:20,0.515,0.781,0.479,0.938,0.685,0.321,0.557,0.527,�쐼,7.2,��
2023/07/16,04:30,0.513,0.780,0.480,0.938,0.685,0.319,0.558,0.527,�쐼,7.2,��
2023/07/16,04:40,0.515,0.780,0.480,0.935,0.686,0.321,0.558,0.527,�쐼,6.6,��
2023/07/16,04:50,0.515,0.779,0.480,0.936,0.685,0.318,0.558,0.527,�쐼,7.3,��
2023/07/16,05:00,0.515,0.777,0.479,0.935,0.687,0.320,0.558,0.526,�쐼,8.5,��
2023/07/16,05:10,0.516,0.780,0.480,0.937,0.687,0.321,0.559,0.528,�쐼,8.5,��
2023/07/16,05:20,0.514,0.781,0.479,0.939,0.685,0.319,0.560,0.527,�쐼,8.3,��
2023/07/16,05:30,0.514,0.780,0.480,0.937,0.686,0.320,0.560,0.527,�쐼,8.4,��
2023/07/16,05:40,0.514,0.781,0.481,0.936,0.685,0.321,0.559,0.526,�쐼,8.1,��
2023/07/16,05:50,0.515,0.782,0.481,0.938,0.685,0.320,0.561,0.527,�쐼,7.4,��
2023/07/16,06:00,0.516,0.781,0.480,0.938,0.686,0.320,0.560,0.527,�쐼,7.3,��
2023/07/16,06:10,0.515,0.781,0.479,0.938,0.687,0.320,0.560,0.528,�쐼,7.3,��
2023/07/16,06:20,0.515,0.782,0.482,0.937,0.686,0.320,0.559,0.528,�쐼,6.0,��
2023/07/16,06:30,0.516,0.781,0.480,0.937,0.685,0.320,0.559,0.527,�쐼,6.1,��
2023/07/16,06:40,0.516,0.779,0.482,0.940,0.688,0.319,0.558,0.528,�쐼,5.6,��
2023/07/16,06:50,0.516,0.780,0.482,0.938,0.685,0.320,0.560,0.528,�쐼,5.7,��
2023/07/16,07:00,0.515,0.780,0.481,0.937,0.685,0.319,0.559,0.527,�쐼,5.8,��
2023/07/16,07:10,0.516,0.781,0.481,0.938,0.687,0.321,0.560,0.529,�쐼,5.1,��
2023/07/16,07:20,0.516,0.781,0.482,0.936,0.686,0.320,0.559,0.528,�쐼,5.1,��
2023/07/16,07:30,0.515,0.782,0.483,0.937,0.687,0.320,0.560,0.526,�쐼,5.3,��
2023/07/16,07:40,0.517,0.783,0.482,0.939,0.687,0.320,0.561,0.527,�쐼,6.0,��
2023/07/16,07:50,0.516,0.782,0.482,0.940,0.688,0.319,0.558,0.528,�쐼,6.6,��
2023/07/16,08:00,0.516,0.782,0.482,0.938,0.688,0.320,0.560,0.527,�쐼,5.8,��
2023/07/16,08:10,0.516,0.783,0.481,0.939,0.688,0.319,0.560,0.528,�쐼,6.1,��
2023/07/16,08:20,0.516,0.781,0.482,0.939,0.689,0.321,0.561,0.528,��쐼,5.0,��
2023/07/16,08:30,0.516,0.781,0.482,0.939,0.689,0.320,0.562,0.528,��쐼,4.7,��
2023/07/16,08:40,0.517,0.782,0.482,0.941,0.687,0.320,0.562,0.526,��쐼,4.9,��
2023/07/16,08:50,0.518,0.784,0.484,0.938,0.689,0.321,0.561,0.527,���쐼,4.7,��
2023/07/16,09:00,0.517,0.781,0.483,0.938,0.688,0.320,0.562,0.528,���쐼,6.1,��
2023/07/16,09:10,0.518,0.781,0.483,0.942,0.688,0.321,0.562,0.526,���쐼,5.3,��
2023/07/16,09:20,0.517,0.784,0.483,0.941,0.690,0.320,0.564,0.527,���쐼,5.2,��
2023/07/16,09:30,0.517,0.784,0.484,0.943,0.689,0.321,0.562,0.527,��,5.3,��
2023/07/16,09:40,0.516,0.784,0.483,0.941,0.688,0.321,0.560,0.527,���쐼,6.0,��
2023/07/16,09:50,0.516,0.786,0.483,0.943,0.690,0.321,0.560,0.528,���쐼,7.0,��
2023/07/16,10:00,0.517,0.788,0.485,0.941,0.692,0.321,0.560,0.528,��,6.8,��
2023/07/16,10:10,0.517,0.787,0.486,0.944,0.694,0.321,0.560,0.528,��,5.2,��
2023/07/16,10:20,0.520,0.786,0.485,0.944,0.693,0.322,0.560,0.527,��,7.1,��
2023/07/16,10:30,0.519,0.788,0.486,0.945,0.695,0.323,0.562,0.526,��,6.0,��
2023/07/16,10:40,0.521,0.788,0.486,0.946,0.694,0.321,0.561,0.527,��,9.1,��
2023/07/16,10:50,0.522,0.789,0.488,0.947,0.695,0.322,0.561,0.528,��,7.5,��
2023/07/16,11:00,0.522,0.789,0.487,0.946,0.696,0.323,0.561,0.528,��,5.8,��
2023/07/16,11:10,0.521,0.790,0.487,0.943,0.695,0.323,0.561,0.530,���쐼,7.3,��
2023/07/16,11:20,0.522,0.791,0.487,0.945,0.696,0.323,0.561,0.531,��,7.8,��
2023/07/16,11:30,0.523,0.791,0.488,0.945,0.697,0.324,0.561,0.531,��,7.2,��
2023/07/16,11:40,0.523,0.779,0.489,0.945,0.696,0.323,0.561,0.532,���k��,8.2,��
2023/07/16,11:50,0.524,0.774,0.489,0.945,0.698,0.323,0.562,0.530,��,7.9,��
2023/07/16,12:00,0.512,0.789,0.490,0.946,0.699,0.319,0.561,0.530,��,9.3,��
2023/07/16,12:10,0.523,0.789,0.487,0.945,0.700,0.322,0.562,0.531,��,8.9,��
2023/07/16,12:20,0.524,0.790,0.480,0.948,0.697,0.321,0.563,0.531,��,7.3,��
2023/07/16,12:30,0.521,0.789,0.489,0.951,0.701,0.320,0.563,0.532,��,6.6,��
2023/07/16,12:40,0.521,0.791,0.486,0.948,0.698,0.320,0.562,0.530,��,6.3,��
2023/07/16,12:50,0.521,0.790,0.487,0.952,0.701,0.320,0.565,0.532,��,7.2,��
2023/07/16,13:00,0.524,0.792,0.487,0.951,0.699,0.321,0.566,0.532,���쐼,7.1,��
2023/07/16,13:10,0.524,0.793,0.486,0.951,0.702,0.322,0.564,0.531,���쐼,6.5,��
2023/07/16,13:20,0.524,0.793,0.488,0.955,0.702,0.323,0.563,0.532,��,8.9,��
2023/07/16,13:30,0.524,0.794,0.489,0.953,0.702,0.322,0.566,0.530,��,9.6,��
2023/07/16,13:40,0.525,0.794,0.490,0.952,0.704,0.322,0.566,0.531,��,6.0,��
2023/07/16,13:50,0.526,0.794,0.489,0.954,0.704,0.323,0.567,0.531,��,6.8,��
2023/07/16,14:00,0.526,0.796,0.491,0.954,0.702,0.323,0.566,0.532,���k��,7.3,��
2023/07/16,14:10,0.528,0.795,0.490,0.957,0.704,0.322,0.567,0.533,��,6.4,��
2023/07/16,14:20,0.527,0.799,0.489,0.957,0.704,0.323,0.565,0.530,��,7.8,��
2023/07/16,14:30,0.527,0.796,0.490,0.954,0.704,0.323,0.567,0.516,��,7.0,��
2023/07/16,14:40,0.526,0.797,0.490,0.956,0.706,0.323,0.566,0.523,��,8.6,��
2023/07/16,14:50,0.527,0.797,0.491,0.956,0.704,0.324,0.565,0.524,��,6.8,��
2023/07/16,15:00,0.528,0.792,0.491,0.957,0.705,0.323,0.566,0.526,��,8.4,��
2023/07/16,15:10,0.527,0.776,0.490,0.957,0.704,0.324,0.566,0.526,��,7.5,��
2023/07/16,15:20,0.528,0.796,0.491,0.959,0.706,0.324,0.566,0.525,���쐼,6.4,��
2023/07/16,15:30,0.528,0.794,0.492,0.959,0.705,0.323,0.566,0.525,��,5.8,��
2023/07/16,15:40,0.529,0.794,0.491,0.959,0.704,0.324,0.566,0.527,��,5.9,��
2023/07/16,15:50,0.528,0.794,0.490,0.959,0.703,0.322,0.567,0.527,��,5.3,��
2023/07/16,16:00,0.526,0.795,0.490,0.959,0.703,0.323,0.565,0.527,���k��,4.0,��
2023/07/16,16:10,0.528,0.795,0.490,0.957,0.704,0.324,0.565,0.526,��,4.2,��
2023/07/16,16:20,0.526,0.795,0.490,0.957,0.702,0.322,0.564,0.526,��,4.7,��
2023/07/16,16:30,0.527,0.794,0.489,0.960,0.703,0.323,0.564,0.528,��,3.8,��
2023/07/16,16:40,0.527,0.797,0.491,0.959,0.705,0.322,0.565,0.528,��,3.6,��
2023/07/16,16:50,0.528,0.794,0.490,0.958,0.702,0.321,0.565,0.528,��,3.1,��
2023/07/16,17:00,0.525,0.798,0.491,0.959,0.705,0.321,0.564,0.527,��,3.5,��
2023/07/16,17:10,0.527,0.796,0.488,0.960,0.705,0.322,0.566,0.528,��,3.2,��
2023/07/16,17:20,0.526,0.796,0.490,0.958,0.704,0.322,0.564,0.528,���쐼,2.5,��
2023/07/16,17:30,0.525,0.794,0.488,0.958,0.704,0.322,0.564,0.528,���쐼,3.7,��
2023/07/16,17:40,0.525,0.797,0.489,0.960,0.702,0.323,0.564,0.529,���쐼,6.0,��
2023/07/16,17:50,0.525,0.793,0.489,0.960,0.703,0.323,0.563,0.528,���쐼,6.3,��
2023/07/16,18:00,0.524,0.796,0.489,0.960,0.703,0.320,0.563,0.527,��,5.8,��
2023/07/16,18:10,0.525,0.794,0.488,0.958,0.704,0.322,0.562,0.528,���쐼,5.0,��
2023/07/16,18:20,0.525,0.794,0.490,0.960,0.703,0.323,0.564,0.528,���쐼,4.8,��
2023/07/16,18:30,0.524,0.795,0.488,0.958,0.703,0.321,0.563,0.531,���쐼,5.1,��
2023/07/16,18:40,0.524,0.796,0.489,0.958,0.704,0.322,0.564,0.530,���쐼,4.1,��
2023/07/16,18:50,0.524,0.796,0.488,0.958,0.705,0.321,0.563,0.528,���쐼,5.1,��
2023/07/16,19:00,0.526,0.798,0.487,0.960,0.705,0.322,0.563,0.529,���쐼,5.2,��
2023/07/16,19:10,0.526,0.797,0.488,0.960,0.705,0.322,0.562,0.527,��,4.8,��
2023/07/16,19:20,0.526,0.798,0.488,0.961,0.703,0.322,0.564,0.529,��,4.9,��
2023/07/16,19:30,0.526,0.797,0.489,0.962,0.704,0.323,0.563,0.529,��,4.1,��
2023/07/16,19:40,0.525,0.799,0.490,0.961,0.703,0.322,0.564,0.527,��,4.4,��
2023/07/16,19:50,0.527,0.796,0.491,0.961,0.704,0.323,0.563,0.528,���k��,2.9,��
2023/07/16,20:00,0.526,0.797,0.489,0.960,0.704,0.322,0.564,0.529,��,2.6,��
2023/07/16,20:10,0.525,0.797,0.490,0.958,0.704,0.322,0.562,0.528,���k��,3.8,��
2023/07/16,20:20,0.526,0.798,0.488,0.958,0.703,0.323,0.562,0.529,��,2.2,��
2023/07/16,20:30,0.525,0.796,0.488,0.961,0.702,0.322,0.563,0.528,�쐼,1.5,��
2023/07/16,20:40,0.525,0.795,0.488,0.961,0.702,0.321,0.564,0.529,�쐼,2.8,��
2023/07/16,20:50,0.526,0.795,0.489,0.959,0.704,0.323,0.565,0.527,���쐼,3.3,��
2023/07/16,21:00,0.525,0.797,0.489,0.959,0.703,0.322,0.564,0.529,���쐼,4.2,��
2023/07/16,21:10,0.526,0.797,0.488,0.960,0.706,0.323,0.564,0.528,��,5.0,��
2023/07/16,21:20,0.524,0.796,0.489,0.960,0.704,0.321,0.564,0.529,��,5.6,��
2023/07/16,21:30,0.525,0.795,0.490,0.960,0.704,0.321,0.564,0.529,��,5.4,��
2023/07/16,21:40,0.525,0.795,0.489,0.959,0.704,0.321,0.563,0.529,��,5.6,��
2023/07/16,21:50,0.525,0.795,0.489,0.959,0.704,0.322,0.563,0.530,���k��,4.2,��
2023/07/16,22:00,0.526,0.796,0.488,0.959,0.705,0.322,0.565,0.529,���k��,2.0,��
2023/07/16,22:10,0.525,0.797,0.490,0.961,0.706,0.321,0.563,0.528,��,0.8,��
2023/07/16,22:20,0.525,0.797,0.489,0.961,0.705,0.322,0.564,0.529,��쓌,1.2,��
2023/07/16,22:30,0.526,0.796,0.490,0.959,0.704,0.323,0.566,0.529,���쐼,2.3,��
2023/07/16,22:40,0.525,0.796,0.489,0.960,0.704,0.322,0.564,0.529,��,1.9,��
2023/07/16,22:50,0.525,0.798,0.489,0.959,0.702,0.322,0.563,0.528,���k��,2.0,��
2023/07/16,23:00,0.526,0.797,0.490,0.959,0.704,0.322,0.565,0.529,�k�k��,2.5,��
2023/07/16,23:10,0.525,0.796,0.491,0.961,0.705,0.322,0.566,0.529,�k��,4.3,��
2023/07/16,23:20,0.525,0.796,0.491,0.960,0.704,0.323,0.565,0.530,�k��,3.6,��
2023/07/16,23:30,0.525,0.796,0.489,0.959,0.704,0.322,0.564,0.529,���k��,4.2,��
2023/07/16,23:40,0.525,0.795,0.488,0.961,0.704,0.323,0.564,0.528,�k��,5.2,��
2023/07/16,23:50,0.526,0.797,0.488,0.961,0.704,0.323,0.564,0.528,�k��,3.4,��
